Regional Weather Roundup
Issued by NWS Sioux Falls, SD

Home | Current Version | Previous Version | Graphics & Text | Print | Product List | Glossary Off
Versions: 1 2 3 4 5 6 7 8 9 10 11 12 13 14 15 16 17 18 19 20 21 22 23 24 25 26 27 28 29 30 31 32 33 34 35 36 37 38 39 40 41 42 43 44 45 46 47 48 49 50

000
ASUS43 KFSD 240502
RWRFSD

WEATHER ROUNDUP FOR SE SOUTH DAKOTA/SW MINNESOTA/NW IOWA
NATIONAL WEATHER SERVICE SIOUX FALLS SD
1100 PM CST THU FEB 23 2017

NOTE: "FAIR" INDICATES FEW OR NO CLOUDS BELOW 12,000 FEET WITH NO
SIGNIFICANT WEATHER AND OR OBSTRUCTIONS TO VISIBILITY.


SDZ038>040-050-052>070-240600-
SOUTHEAST SOUTH DAKOTA

CITY           SKY/WX    TMP DP  RH WIND       PRES   REMARKS
BROOKINGS      CLOUDY    26  22  84 N20G29    29.86S WCI  12
CHAMBERLAIN    CLOUDY    28  24  83 N15G21    29.95S WCI  17
HURON          CLOUDY    27  21  78 N17G25    29.94F WCI  14
MADISON        CLOUDY    25  25 100 NE25G33   29.86S WCI   9
MITCHELL       CLOUDY    29  24  82 N20G26    29.91S WCI  16
SIOUX FALLS    LGT SNOW  28  26  92 N22G33    29.82F VSB 3/4 WCI  14
WINNER         LGT SNOW  26  23  88 N17       29.93S VSB 1   WCI  13
YANKTON        CLOUDY    28  25  86 N23G30    29.79F WCI  14
$$

MNZ071-072-080-081-089-090-097-098-240600-
SOUTHWEST MINNESOTA

CITY           SKY/WX    TMP DP  RH WIND       PRES   REMARKS
JACKSON        SNOW      28  27  93 NE28      29.79F VSB 1/2 WCI  13
LUVERNE        LGT SNOW  28  25  86 NE21G33   29.80F WCI  15
MARSHALL       PTCLDY    29  23  78 NE21G26   29.90S WCI  16
MONTEVIDEO     MOCLDY    28  23  80 NE17G24   29.95F WCI  16
PIPESTONE      LGT SNOW  28  21  74 NE23G30   29.82S WCI  14
REDWOOD FALLS  CLOUDY    30  22  72 NE13G22   29.88F WCI  20
TRACY          CLOUDY    30  25  83 NE21G28   29.87S WCI  17
WINDOM         CLOUDY    27  27 100 N20G25    29.82S WCI  13
WORTHINGTON    LGT SNOW  26  25  96 N28       29.78F FOG     WCI  10
$$

IAZ001>003-012>014-020>022-031-032-NEZ013-014-SDZ071-240600-
NORTHWEST IOWA

CITY           SKY/WX    TMP DP  RH WIND       PRES   REMARKS
CHEROKEE       LGT SNOW  31  30  99 N20G28    29.70S WCI  18
DENISON        LGT RAIN  32  32 100 NE21G32   29.59R WCI  20
ESTHERVILLE    FOG       27  27 100 N30       29.75F VSB 1/2 WCI  11
LE MARS        LGT SNOW  30  28  93 NE18G26   29.75R VSB 3/4 WCI  18
ORANGE CITY    LGT SNOW  28  27  93 NE20G26   29.75R WCI  15
SHELDON        MIX PCPN  28  28 100 NE23G31   29.74S WCI  14
SIOUX CITY     SNOW      33  30  88 NE20G30   29.71R VSB 1/4 WCI  21
SPENCER        HVY SNOW  28  27  96 NE32G41   29.72F VSB 1/4 WCI  12
STORM LAKE     MIX PCPN  30  30 100 NE35G45   29.63F VSB 1/4 WCI  14
$$

ABBREVIATIONS USED IN REMARKS
   TC - TEMPERATURE IN CELSIUS
  WCI - WIND CHILL INDEX
   HX - HEAT INDEX
  VSB - VISIBILITY





USA.gov is the U.S. government's official web portal to all federal, state and local government web resources and services.